User: anonymous   Login
Location: Rometta
(44.2000°N, 10.0500°E)
Time: 03:01:56
(UTC+00:00)
Language:

MOS 1 Rocket - Orbit

View from above orbital plane
View from above orbital plane
View from above satellite
View from above satellite

Ground track
Ground track

The orbit data is extracted from the following two-line orbital elements,

1 17528U 87018B   21102.47174906  .00000081  00000-0  27443-4 0  9994
2 17528  97.4059 282.2646 0150226 244.6170 113.9411 14.51043225781585
Epoch (UTC): 12 April 2021 11:19:19
Eccentricity: 0.0150226
inclination: 97.4059°
perigee height: 615 km
apogee height: 829 km
right ascension of ascending node: 282.2646°
argument of perigee: 244.6170°
revolutions per day: 14.51043225
mean anomaly at epoch: 113.9411°
orbit number at epoch: 78158

The dashed part of the orbit path shows where the satellite is in the earth's shadow,  

DLR